Year,Month,Day,Hour,Minute,Value (Times are PST for windspeed in km/hr)
2016,10,05,00,00,0.10
2016,10,05,00,01,1.90
2016,10,05,00,02,1.00
2016,10,05,00,03,0.00
2016,10,05,00,04,0.20
2016,10,05,00,05,0.00
2016,10,05,00,06,0.00
2016,10,05,00,07,0.10
2016,10,05,00,08,0.90
2016,10,05,00,09,1.40
2016,10,05,00,10,0.50
2016,10,05,00,11,1.90
2016,10,05,00,12,2.40
2016,10,05,00,13,0.00
2016,10,05,00,14,0.00
2016,10,05,00,15,0.10
2016,10,05,00,16,0.00
2016,10,05,00,17,1.60
2016,10,05,00,18,0.00
2016,10,05,00,19,1.90
2016,10,05,00,20,0.00
2016,10,05,00,21,0.00
2016,10,05,00,22,0.00
2016,10,05,00,23,0.00
2016,10,05,00,24,1.30
2016,10,05,00,25,2.70
2016,10,05,00,26,0.10
2016,10,05,00,27,2.10
2016,10,05,00,28,0.60
2016,10,05,00,29,0.00
2016,10,05,00,30,0.00
2016,10,05,00,31,1.40
2016,10,05,00,32,0.00
2016,10,05,00,33,0.00
2016,10,05,00,34,0.00
2016,10,05,00,35,0.00
2016,10,05,00,36,0.10
2016,10,05,00,37,0.00
2016,10,05,00,38,0.00
2016,10,05,00,39,1.30
2016,10,05,00,40,3.90
2016,10,05,00,41,2.70
2016,10,05,00,42,0.90
2016,10,05,00,43,0.00
2016,10,05,00,44,0.30
2016,10,05,00,45,0.30
2016,10,05,00,46,0.10
2016,10,05,00,47,0.00
2016,10,05,00,48,0.00
2016,10,05,00,49,0.00
2016,10,05,00,50,0.00
2016,10,05,00,51,0.00
2016,10,05,00,52,0.00
2016,10,05,00,53,1.00
2016,10,05,00,54,4.20
2016,10,05,00,55,1.30
2016,10,05,00,56,0.00
2016,10,05,00,57,0.00
2016,10,05,00,58,0.00
2016,10,05,00,59,0.00
2016,10,05,01,00,0.00
2016,10,05,01,01,1.00
2016,10,05,01,02,2.20
2016,10,05,01,03,0.00
2016,10,05,01,04,0.00
2016,10,05,01,05,0.00
2016,10,05,01,06,0.60
2016,10,05,01,07,0.00
2016,10,05,01,08,0.40
2016,10,05,01,09,0.00
2016,10,05,01,10,2.70
2016,10,05,01,11,0.50
2016,10,05,01,12,0.80
2016,10,05,01,13,3.00
2016,10,05,01,14,0.00
2016,10,05,01,15,1.00
2016,10,05,01,16,0.20
2016,10,05,01,17,0.70
2016,10,05,01,18,0.10
2016,10,05,01,19,0.00
2016,10,05,01,20,0.80
2016,10,05,01,21,1.00
2016,10,05,01,22,0.70
2016,10,05,01,23,0.10
2016,10,05,01,24,3.00
2016,10,05,01,25,1.90
2016,10,05,01,26,4.40
2016,10,05,01,27,3.10
2016,10,05,01,28,0.90
2016,10,05,01,29,4.60
2016,10,05,01,30,2.50
2016,10,05,01,31,4.60
2016,10,05,01,32,2.30
2016,10,05,01,33,2.40
2016,10,05,01,34,2.10
2016,10,05,01,35,9.80
2016,10,05,01,36,8.90
2016,10,05,01,37,8.20
2016,10,05,01,38,8.90
2016,10,05,01,39,4.00
2016,10,05,01,40,1.80
2016,10,05,01,41,4.10
2016,10,05,01,42,6.30
2016,10,05,01,43,5.10
2016,10,05,01,44,8.20
2016,10,05,01,45,5.10
2016,10,05,01,46,6.20
2016,10,05,01,47,3.10
2016,10,05,01,48,1.70
2016,10,05,01,49,7.50
2016,10,05,01,50,14.00
2016,10,05,01,51,12.80
2016,10,05,01,52,11.60
2016,10,05,01,53,9.60
2016,10,05,01,54,9.00
2016,10,05,01,55,11.60
2016,10,05,01,56,13.00
2016,10,05,01,57,9.90
2016,10,05,01,58,8.10
2016,10,05,01,59,9.80
2016,10,05,02,00,13.00
2016,10,05,02,01,11.60
2016,10,05,02,02,14.60
2016,10,05,02,03,9.50
2016,10,05,02,04,10.00
2016,10,05,02,05,9.60
2016,10,05,02,06,5.30
2016,10,05,02,07,8.30
2016,10,05,02,08,2.70
2016,10,05,02,09,8.20
2016,10,05,02,10,9.90
2016,10,05,02,11,4.90
2016,10,05,02,12,5.20
2016,10,05,02,13,7.00
2016,10,05,02,14,10.40
2016,10,05,02,15,6.90
2016,10,05,02,16,6.20
2016,10,05,02,17,10.10
2016,10,05,02,18,9.30
2016,10,05,02,19,15.70
2016,10,05,02,20,8.50
2016,10,05,02,21,9.30
2016,10,05,02,22,5.90
2016,10,05,02,23,6.20
2016,10,05,02,24,3.80
2016,10,05,02,25,6.50
2016,10,05,02,26,7.70
2016,10,05,02,27,9.30
2016,10,05,02,28,10.60
2016,10,05,02,29,7.80
2016,10,05,02,30,6.40
2016,10,05,02,31,6.80
2016,10,05,02,32,8.50
2016,10,05,02,33,9.70
2016,10,05,02,34,14.00
2016,10,05,02,35,7.60
2016,10,05,02,36,8.80
2016,10,05,02,37,9.10
2016,10,05,02,38,5.90
2016,10,05,02,39,7.40
2016,10,05,02,40,10.70
2016,10,05,02,41,9.90
2016,10,05,02,42,10.00
2016,10,05,02,43,9.40
2016,10,05,02,44,9.00
2016,10,05,02,45,7.00
2016,10,05,02,46,10.80
2016,10,05,02,47,15.00
2016,10,05,02,48,8.90
2016,10,05,02,49,10.80
2016,10,05,02,50,11.00
2016,10,05,02,51,11.80
2016,10,05,02,52,13.80
2016,10,05,02,53,18.90
2016,10,05,02,54,13.80
2016,10,05,02,55,11.90
2016,10,05,02,56,12.10
2016,10,05,02,57,12.10
2016,10,05,02,58,13.10
2016,10,05,02,59,7.30
2016,10,05,03,00,4.80
2016,10,05,03,01,6.30
2016,10,05,03,02,10.70
2016,10,05,03,03,10.00
2016,10,05,03,04,5.60
2016,10,05,03,05,16.10
2016,10,05,03,06,12.60
2016,10,05,03,07,8.80
2016,10,05,03,08,14.10
2016,10,05,03,09,10.80
2016,10,05,03,10,10.00
2016,10,05,03,11,7.10
2016,10,05,03,12,6.80
2016,10,05,03,13,8.70
2016,10,05,03,14,12.50
2016,10,05,03,15,11.10
2016,10,05,03,16,6.50
2016,10,05,03,17,5.40
2016,10,05,03,18,7.20
2016,10,05,03,19,12.50
2016,10,05,03,20,12.80
2016,10,05,03,21,9.00
2016,10,05,03,22,13.80
2016,10,05,03,23,8.60
2016,10,05,03,24,6.70
2016,10,05,03,25,8.30
2016,10,05,03,26,12.80
2016,10,05,03,27,10.30
2016,10,05,03,28,8.50
2016,10,05,03,29,9.30
2016,10,05,03,30,8.10
2016,10,05,03,31,5.70
2016,10,05,03,32,6.70
2016,10,05,03,33,8.40
2016,10,05,03,34,7.60
2016,10,05,03,35,8.10
2016,10,05,03,36,8.70
2016,10,05,03,37,9.10
2016,10,05,03,38,8.60
2016,10,05,03,39,6.70
2016,10,05,03,40,3.00
2016,10,05,03,41,7.70
2016,10,05,03,42,3.90
2016,10,05,03,43,4.20
2016,10,05,03,44,6.70
2016,10,05,03,45,3.90
2016,10,05,03,46,6.70
2016,10,05,03,47,5.90
2016,10,05,03,48,2.70
2016,10,05,03,49,9.60
2016,10,05,03,50,9.20
2016,10,05,03,51,5.60
2016,10,05,03,52,5.00
2016,10,05,03,53,1.20
2016,10,05,03,54,5.50
2016,10,05,03,55,3.50
2016,10,05,03,56,3.60
2016,10,05,03,57,3.60
2016,10,05,03,58,1.70
2016,10,05,03,59,2.40
2016,10,05,04,00,0.50
2016,10,05,04,01,4.30
2016,10,05,04,02,8.00
2016,10,05,04,03,2.30
2016,10,05,04,04,4.50
2016,10,05,04,05,7.20
2016,10,05,04,06,3.60
2016,10,05,04,07,2.50
2016,10,05,04,08,4.40
2016,10,05,04,09,6.30
2016,10,05,04,10,6.00
2016,10,05,04,11,4.40
2016,10,05,04,12,3.90
2016,10,05,04,13,2.70
2016,10,05,04,14,2.50
2016,10,05,04,15,8.40
2016,10,05,04,16,8.40
2016,10,05,04,17,6.40
2016,10,05,04,18,6.00
2016,10,05,04,19,5.00
2016,10,05,04,20,5.30
2016,10,05,04,21,7.40
2016,10,05,04,22,8.10
2016,10,05,04,23,6.60
2016,10,05,04,24,3.80
2016,10,05,04,25,1.00
2016,10,05,04,26,2.50
2016,10,05,04,27,7.90
2016,10,05,04,28,8.90
2016,10,05,04,29,8.80
2016,10,05,04,30,7.20
2016,10,05,04,31,5.60
2016,10,05,04,32,7.20
2016,10,05,04,33,7.00
2016,10,05,04,34,6.70
2016,10,05,04,35,7.20
2016,10,05,04,36,8.60
2016,10,05,04,37,10.90
2016,10,05,04,38,8.80
2016,10,05,04,39,4.30
2016,10,05,04,40,4.10
2016,10,05,04,41,4.90
2016,10,05,04,42,6.70
2016,10,05,04,43,8.10
2016,10,05,04,44,10.60
2016,10,05,04,45,10.00
2016,10,05,04,46,3.70
2016,10,05,04,47,5.70
2016,10,05,04,48,2.80
2016,10,05,04,49,1.90
2016,10,05,04,50,4.80
2016,10,05,04,51,2.10
2016,10,05,04,52,7.30
2016,10,05,04,53,5.00
2016,10,05,04,54,3.50
2016,10,05,04,55,2.30
2016,10,05,04,56,1.60
2016,10,05,04,57,3.00
2016,10,05,04,58,5.50
2016,10,05,04,59,3.20
2016,10,05,05,00,0.80
2016,10,05,05,01,1.30
2016,10,05,05,02,4.10
2016,10,05,05,03,4.30
2016,10,05,05,04,2.50
2016,10,05,05,05,5.90
2016,10,05,05,06,8.60
2016,10,05,05,07,4.70
2016,10,05,05,08,8.30
2016,10,05,05,09,5.20
2016,10,05,05,10,7.70
2016,10,05,05,11,8.70
2016,10,05,05,12,10.10
2016,10,05,05,13,7.60
2016,10,05,05,14,12.10
2016,10,05,05,15,7.00
2016,10,05,05,16,2.70
2016,10,05,05,17,3.00
2016,10,05,05,18,6.00
2016,10,05,05,19,4.00
2016,10,05,05,20,8.70
2016,10,05,05,21,10.50
2016,10,05,05,22,6.80
2016,10,05,05,23,2.20
2016,10,05,05,24,4.40
2016,10,05,05,25,3.00
2016,10,05,05,26,1.80
2016,10,05,05,27,4.00
2016,10,05,05,28,1.10
2016,10,05,05,29,1.80
2016,10,05,05,30,3.40
2016,10,05,05,31,6.00
2016,10,05,05,32,3.00
2016,10,05,05,33,4.70
2016,10,05,05,34,7.80
2016,10,05,05,35,5.80
2016,10,05,05,36,3.20
2016,10,05,05,37,4.30
2016,10,05,05,38,0.60
2016,10,05,05,39,5.60
2016,10,05,05,40,0.50
2016,10,05,05,41,4.60
2016,10,05,05,42,4.20
2016,10,05,05,43,0.80
2016,10,05,05,44,1.70
2016,10,05,05,45,3.20
2016,10,05,05,46,4.20
2016,10,05,05,47,2.60
2016,10,05,05,48,3.70
2016,10,05,05,49,0.70
2016,10,05,05,50,0.10
2016,10,05,05,51,1.20
2016,10,05,05,52,1.30
2016,10,05,05,53,0.90
2016,10,05,05,54,0.60
2016,10,05,05,55,0.00
2016,10,05,05,56,0.00
2016,10,05,05,57,0.10
2016,10,05,05,58,0.00
2016,10,05,05,59,0.00
2016,10,05,06,00,0.00
2016,10,05,06,01,0.00
2016,10,05,06,02,0.00
2016,10,05,06,03,0.00
2016,10,05,06,04,0.00
2016,10,05,06,05,0.00
2016,10,05,06,06,0.10
2016,10,05,06,07,0.80
2016,10,05,06,08,0.00
2016,10,05,06,09,0.00
2016,10,05,06,10,0.00
2016,10,05,06,11,0.00
2016,10,05,06,12,0.00
2016,10,05,06,13,0.00
2016,10,05,06,14,0.10
2016,10,05,06,15,0.00
2016,10,05,06,16,0.00
2016,10,05,06,17,0.00
2016,10,05,06,18,0.00
2016,10,05,06,19,0.60
2016,10,05,06,20,1.30
2016,10,05,06,21,0.00
2016,10,05,06,22,0.00
2016,10,05,06,23,0.00
2016,10,05,06,24,0.00
2016,10,05,06,25,0.00
2016,10,05,06,26,0.00
2016,10,05,06,27,0.00
2016,10,05,06,28,0.30
2016,10,05,06,29,0.00
2016,10,05,06,30,0.20
2016,10,05,06,31,0.00
2016,10,05,06,32,0.00
2016,10,05,06,33,0.00
2016,10,05,06,34,0.00
2016,10,05,06,35,0.20
2016,10,05,06,36,0.00
2016,10,05,06,37,0.00
2016,10,05,06,38,0.00
2016,10,05,06,39,0.10
2016,10,05,06,40,0.00
2016,10,05,06,41,0.00
2016,10,05,06,42,0.00
2016,10,05,06,43,0.00
2016,10,05,06,44,0.00
2016,10,05,06,45,0.00
2016,10,05,06,46,0.00
2016,10,05,06,47,0.00
2016,10,05,06,48,0.10
2016,10,05,06,49,1.20
2016,10,05,06,50,4.70
2016,10,05,06,51,3.90
2016,10,05,06,52,3.40
2016,10,05,06,53,0.00
2016,10,05,06,54,0.00
2016,10,05,06,55,0.00
2016,10,05,06,56,0.00
2016,10,05,06,57,0.00
2016,10,05,06,58,0.00
2016,10,05,06,59,0.00
2016,10,05,07,00,0.00
2016,10,05,07,01,0.00
2016,10,05,07,02,0.00
2016,10,05,07,03,0.70
2016,10,05,07,04,0.00
2016,10,05,07,05,0.00
2016,10,05,07,06,2.50
2016,10,05,07,07,0.80
2016,10,05,07,08,1.00
2016,10,05,07,09,0.00
2016,10,05,07,10,0.60
2016,10,05,07,11,0.70
2016,10,05,07,12,0.00
2016,10,05,07,13,0.00
2016,10,05,07,14,0.00
2016,10,05,07,15,0.00
2016,10,05,07,16,0.00
2016,10,05,07,17,0.20
2016,10,05,07,18,0.00
2016,10,05,07,19,0.10
2016,10,05,07,20,0.00
2016,10,05,07,21,0.00
2016,10,05,07,22,0.40
2016,10,05,07,23,0.00
2016,10,05,07,24,0.10
2016,10,05,07,25,0.00
2016,10,05,07,26,0.00
2016,10,05,07,27,0.00
2016,10,05,07,28,0.40
2016,10,05,07,29,3.10
2016,10,05,07,30,0.30
2016,10,05,07,31,0.20
2016,10,05,07,32,1.40
2016,10,05,07,33,0.60
2016,10,05,07,34,1.10
2016,10,05,07,35,0.00
2016,10,05,07,36,0.00
2016,10,05,07,37,0.60
2016,10,05,07,38,0.20
2016,10,05,07,39,0.00
2016,10,05,07,40,0.00
2016,10,05,07,41,0.00
2016,10,05,07,42,0.00
2016,10,05,07,43,0.10
2016,10,05,07,44,0.00
2016,10,05,07,45,1.10
2016,10,05,07,46,0.00
2016,10,05,07,47,0.00
2016,10,05,07,48,0.10
2016,10,05,07,49,0.00
2016,10,05,07,50,0.00
2016,10,05,07,51,0.20
2016,10,05,07,52,1.00
2016,10,05,07,53,0.00
2016,10,05,07,54,3.10
2016,10,05,07,55,0.80
2016,10,05,07,56,3.70
2016,10,05,07,57,0.30
2016,10,05,07,58,0.00
2016,10,05,07,59,0.00
2016,10,05,08,00,0.80
2016,10,05,08,01,4.20
2016,10,05,08,02,2.00
2016,10,05,08,03,0.00
2016,10,05,08,04,0.60
2016,10,05,08,05,0.00
2016,10,05,08,06,0.00
2016,10,05,08,07,4.80
2016,10,05,08,08,4.70
2016,10,05,08,09,5.20
2016,10,05,08,10,4.40
2016,10,05,08,11,3.00
2016,10,05,08,12,0.90
2016,10,05,08,13,1.40
2016,10,05,08,14,0.20
2016,10,05,08,15,0.00
2016,10,05,08,16,0.00
2016,10,05,08,17,0.10
2016,10,05,08,18,0.60
2016,10,05,08,19,1.40
2016,10,05,08,20,0.00
2016,10,05,08,21,0.00
2016,10,05,08,22,0.00
2016,10,05,08,23,0.90
2016,10,05,08,24,1.00
2016,10,05,08,25,0.60
2016,10,05,08,26,0.30
2016,10,05,08,27,0.40
2016,10,05,08,28,0.00
2016,10,05,08,29,0.20
2016,10,05,08,30,1.30
2016,10,05,08,31,0.00
2016,10,05,08,32,2.50
2016,10,05,08,33,3.70
2016,10,05,08,34,1.10
2016,10,05,08,35,0.50
2016,10,05,08,36,0.90
2016,10,05,08,37,1.10
2016,10,05,08,38,0.10
2016,10,05,08,39,0.10
2016,10,05,08,40,0.00
2016,10,05,08,41,0.00
2016,10,05,08,42,0.10
2016,10,05,08,43,4.40
2016,10,05,08,44,7.40
2016,10,05,08,45,4.20
2016,10,05,08,46,5.20
2016,10,05,08,47,3.00
2016,10,05,08,48,5.20
2016,10,05,08,49,5.90
2016,10,05,08,50,5.50
2016,10,05,08,51,6.70
2016,10,05,08,52,2.50
2016,10,05,08,53,0.00
2016,10,05,08,54,0.70
2016,10,05,08,55,0.60
2016,10,05,08,56,1.90
2016,10,05,08,57,2.50
2016,10,05,08,58,0.00
2016,10,05,08,59,0.00
2016,10,05,09,00,2.10
2016,10,05,09,01,2.10
2016,10,05,09,02,4.40
2016,10,05,09,03,5.90
2016,10,05,09,04,1.00
2016,10,05,09,05,2.10
2016,10,05,09,06,1.30
2016,10,05,09,07,0.00
2016,10,05,09,08,0.00
2016,10,05,09,09,0.00
2016,10,05,09,10,0.00
2016,10,05,09,11,0.00
2016,10,05,09,12,0.00
2016,10,05,09,13,0.00
2016,10,05,09,14,0.00
2016,10,05,09,15,0.00
2016,10,05,09,16,0.60
2016,10,05,09,17,0.00
2016,10,05,09,18,0.10
2016,10,05,09,19,0.10
2016,10,05,09,20,1.20
2016,10,05,09,21,3.10
2016,10,05,09,22,0.20
2016,10,05,09,23,1.60
2016,10,05,09,24,1.50
2016,10,05,09,25,0.10
2016,10,05,09,26,0.50
2016,10,05,09,27,2.30
2016,10,05,09,28,3.70
2016,10,05,09,29,1.20
2016,10,05,09,30,1.90
2016,10,05,09,31,0.90
2016,10,05,09,32,0.00
2016,10,05,09,33,0.00
2016,10,05,09,34,0.00
2016,10,05,09,35,0.00
2016,10,05,09,36,0.10
2016,10,05,09,37,0.00
2016,10,05,09,38,3.30
2016,10,05,09,39,3.80
2016,10,05,09,40,3.40
2016,10,05,09,41,5.20
2016,10,05,09,42,4.60
2016,10,05,09,43,1.00
2016,10,05,09,44,1.90
2016,10,05,09,45,2.70
2016,10,05,09,46,5.70
2016,10,05,09,47,4.10
2016,10,05,09,48,2.40
2016,10,05,09,49,4.80
2016,10,05,09,50,3.70
2016,10,05,09,51,5.80
2016,10,05,09,52,5.50
2016,10,05,09,53,5.50
2016,10,05,09,54,2.90
2016,10,05,09,55,2.40
2016,10,05,09,56,3.60
2016,10,05,09,57,5.40
2016,10,05,09,58,5.40
2016,10,05,09,59,5.70
2016,10,05,10,00,3.20
2016,10,05,10,01,1.10
2016,10,05,10,02,3.40
2016,10,05,10,03,2.00
2016,10,05,10,04,1.00
2016,10,05,10,05,1.90
2016,10,05,10,06,3.40
2016,10,05,10,07,2.70
2016,10,05,10,08,4.60
2016,10,05,10,09,2.20
2016,10,05,10,10,3.10
2016,10,05,10,11,4.20
2016,10,05,10,12,5.60
2016,10,05,10,13,4.40
2016,10,05,10,14,4.10
2016,10,05,10,15,6.10
2016,10,05,10,16,4.30
2016,10,05,10,17,2.30
2016,10,05,10,18,4.80
2016,10,05,10,19,2.00
2016,10,05,10,20,4.10
2016,10,05,10,21,3.60
2016,10,05,10,22,4.00
2016,10,05,10,23,3.60
2016,10,05,10,24,1.70
2016,10,05,10,25,3.80
2016,10,05,10,26,7.10
2016,10,05,10,27,5.80
2016,10,05,10,28,9.00
2016,10,05,10,29,5.70
2016,10,05,10,30,3.30
2016,10,05,10,31,5.60
2016,10,05,10,32,6.80
2016,10,05,10,33,7.60
2016,10,05,10,34,7.50
2016,10,05,10,35,8.90
2016,10,05,10,36,7.40
2016,10,05,10,37,4.60
2016,10,05,10,38,5.00
2016,10,05,10,39,6.40
2016,10,05,10,40,9.10
2016,10,05,10,41,6.20
2016,10,05,10,42,7.40
2016,10,05,10,43,6.80
2016,10,05,10,44,9.90
2016,10,05,10,45,6.70
2016,10,05,10,46,6.20
2016,10,05,10,47,7.20
2016,10,05,10,48,5.20
2016,10,05,10,49,9.10
2016,10,05,10,50,4.60
2016,10,05,10,51,8.90
2016,10,05,10,52,8.80
2016,10,05,10,53,5.90
2016,10,05,10,54,6.30
2016,10,05,10,55,8.00
2016,10,05,10,56,5.90
2016,10,05,10,57,10.70
2016,10,05,10,58,11.50
2016,10,05,10,59,6.40
2016,10,05,11,00,4.70
2016,10,05,11,01,4.80
2016,10,05,11,02,4.70
2016,10,05,11,03,4.70
2016,10,05,11,04,5.60
2016,10,05,11,05,7.90
2016,10,05,11,06,7.20
2016,10,05,11,07,6.70
2016,10,05,11,08,7.50
2016,10,05,11,09,10.10
2016,10,05,11,10,5.70
2016,10,05,11,11,5.90
2016,10,05,11,12,8.20
2016,10,05,11,13,7.50
2016,10,05,11,14,4.80
2016,10,05,11,15,5.90
2016,10,05,11,16,10.90
2016,10,05,11,17,8.00
2016,10,05,11,18,9.40
2016,10,05,11,19,9.60
2016,10,05,11,20,8.10
2016,10,05,11,21,7.10
2016,10,05,11,22,8.80
2016,10,05,11,23,9.70
2016,10,05,11,24,9.30
2016,10,05,11,25,6.40
2016,10,05,11,26,8.90
2016,10,05,11,27,10.00
2016,10,05,11,28,4.90
2016,10,05,11,29,11.20
2016,10,05,11,30,10.50
2016,10,05,11,31,5.60
2016,10,05,11,32,9.50
2016,10,05,11,33,6.40
2016,10,05,11,34,9.10
2016,10,05,11,35,11.30
2016,10,05,11,36,7.00
2016,10,05,11,37,10.00
2016,10,05,11,38,6.30
2016,10,05,11,39,3.10
2016,10,05,11,40,6.50
2016,10,05,11,41,8.10
2016,10,05,11,42,6.40
2016,10,05,11,43,6.40
2016,10,05,11,44,3.40
2016,10,05,11,45,7.40
2016,10,05,11,46,6.50
2016,10,05,11,47,8.00
2016,10,05,11,48,8.70
2016,10,05,11,49,6.20
2016,10,05,11,50,10.40
2016,10,05,11,51,8.00
2016,10,05,11,52,5.70
2016,10,05,11,53,6.30
2016,10,05,11,54,7.90
2016,10,05,11,55,8.40
2016,10,05,11,56,8.70
2016,10,05,11,57,6.70
2016,10,05,11,58,7.00
2016,10,05,11,59,9.20
2016,10,05,12,00,11.50
2016,10,05,12,01,6.60
2016,10,05,12,02,8.20
2016,10,05,12,03,9.60
2016,10,05,12,04,9.60
2016,10,05,12,05,9.60
2016,10,05,12,06,9.60
2016,10,05,12,07,9.60
2016,10,05,12,08,9.60
2016,10,05,12,09,9.60
2016,10,05,12,10,9.60
2016,10,05,12,11,9.60
2016,10,05,14,10,3.80
2016,10,05,14,11,5.00
2016,10,05,14,12,1.90
2016,10,05,14,13,0.00
2016,10,05,14,14,2.80
2016,10,05,14,15,0.80
2016,10,05,14,16,6.40
2016,10,05,14,17,9.00
2016,10,05,14,18,9.70
2016,10,05,14,19,8.30
2016,10,05,14,20,6.80
2016,10,05,14,21,8.10
2016,10,05,14,22,8.20
2016,10,05,14,23,4.50
2016,10,05,14,24,6.50
2016,10,05,14,25,8.40
2016,10,05,14,26,7.70
2016,10,05,14,27,11.40
2016,10,05,14,28,4.60
2016,10,05,14,29,3.60
2016,10,05,14,30,8.10
2016,10,05,14,31,1.20
2016,10,05,14,32,5.40
2016,10,05,14,33,1.60
2016,10,05,14,34,6.80
2016,10,05,14,35,3.90
2016,10,05,14,36,6.70
2016,10,05,14,37,7.80
2016,10,05,14,38,9.70
2016,10,05,14,39,6.20
2016,10,05,14,40,6.20
2016,10,05,14,41,8.40
2016,10,05,14,42,8.80
2016,10,05,14,43,12.30
2016,10,05,14,44,8.00
2016,10,05,14,45,7.10
2016,10,05,14,46,7.50
2016,10,05,14,47,7.20
2016,10,05,14,48,12.10
2016,10,05,14,49,12.00
2016,10,05,14,50,10.10
2016,10,05,14,51,8.80
2016,10,05,14,52,7.50
2016,10,05,14,53,9.40
2016,10,05,14,54,9.10
2016,10,05,14,55,9.30
2016,10,05,14,56,5.30
2016,10,05,14,57,3.90
2016,10,05,14,58,10.80
2016,10,05,14,59,8.40
2016,10,05,15,00,7.40
2016,10,05,15,01,7.70
2016,10,05,15,02,8.90
2016,10,05,15,03,6.90
2016,10,05,15,04,9.00
2016,10,05,15,05,10.10
2016,10,05,15,06,10.80
2016,10,05,15,07,8.20
2016,10,05,15,08,5.40
2016,10,05,15,09,6.00
2016,10,05,15,10,7.50
2016,10,05,15,11,11.10
2016,10,05,15,12,11.20
2016,10,05,15,13,8.40
2016,10,05,15,14,5.70
2016,10,05,15,15,10.10
2016,10,05,15,16,8.00
2016,10,05,15,17,7.80
2016,10,05,15,18,10.80
2016,10,05,15,19,9.70
2016,10,05,15,20,11.50
2016,10,05,15,21,10.50
2016,10,05,15,22,7.80
2016,10,05,15,23,9.80
2016,10,05,15,24,8.20
2016,10,05,15,25,6.00
2016,10,05,15,26,8.30
2016,10,05,15,27,8.10
2016,10,05,15,28,10.50
2016,10,05,15,29,8.10
2016,10,05,15,30,5.90
2016,10,05,15,31,5.50
2016,10,05,15,32,4.30
2016,10,05,15,33,6.00
2016,10,05,15,34,3.40
2016,10,05,15,35,7.50
2016,10,05,15,36,6.10
2016,10,05,15,37,6.80
2016,10,05,15,38,8.90
2016,10,05,15,39,5.40
2016,10,05,15,40,7.00
2016,10,05,15,41,7.80
2016,10,05,15,42,6.10
2016,10,05,15,43,3.40
2016,10,05,15,44,4.90
2016,10,05,15,45,6.70
2016,10,05,15,46,4.30
2016,10,05,15,47,7.40
2016,10,05,15,48,4.80
2016,10,05,15,49,1.90
2016,10,05,15,50,4.30
2016,10,05,15,51,1.90
2016,10,05,15,52,5.00
2016,10,05,15,53,6.00
2016,10,05,15,54,2.00
2016,10,05,15,55,4.80
2016,10,05,15,56,5.60
2016,10,05,15,57,3.40
2016,10,05,15,58,5.30
2016,10,05,15,59,3.10
2016,10,05,16,00,4.70
2016,10,05,16,01,4.20
2016,10,05,16,02,4.70
2016,10,05,16,03,1.40
2016,10,05,16,04,4.10
2016,10,05,16,05,6.40
2016,10,05,16,06,4.20
2016,10,05,16,07,6.70
2016,10,05,16,08,6.50
2016,10,05,16,09,6.30
2016,10,05,16,10,4.70
2016,10,05,16,11,6.40
2016,10,05,16,12,8.80
2016,10,05,16,13,8.20
2016,10,05,16,14,8.60
2016,10,05,16,15,5.80
2016,10,05,16,16,4.70
2016,10,05,16,17,6.40
2016,10,05,16,18,7.10
2016,10,05,16,19,7.30
2016,10,05,16,20,6.50
2016,10,05,16,21,5.60
2016,10,05,16,22,6.40
2016,10,05,16,23,6.20
2016,10,05,16,24,3.90
2016,10,05,16,25,3.40
2016,10,05,16,26,5.60
2016,10,05,16,27,5.70
2016,10,05,16,28,5.40
2016,10,05,16,29,6.10
2016,10,05,16,30,6.00
2016,10,05,16,31,7.10
2016,10,05,16,32,5.00
2016,10,05,16,33,6.00
2016,10,05,16,34,4.30
2016,10,05,16,35,3.90
2016,10,05,16,36,5.70
2016,10,05,16,37,2.70
2016,10,05,16,38,6.00
2016,10,05,16,39,2.60
2016,10,05,16,40,5.80
2016,10,05,16,41,2.80
2016,10,05,16,42,3.50
2016,10,05,16,43,2.20
2016,10,05,16,44,0.10
2016,10,05,16,45,2.30
2016,10,05,16,46,3.00
2016,10,05,16,47,2.00
2016,10,05,16,48,2.20
2016,10,05,16,49,1.80
2016,10,05,16,50,0.00
2016,10,05,16,51,0.50
2016,10,05,16,52,0.00
2016,10,05,16,53,0.10
2016,10,05,16,54,0.00
2016,10,05,16,55,0.00
2016,10,05,16,56,0.00
2016,10,05,16,57,0.10
2016,10,05,16,58,1.80
2016,10,05,16,59,0.70
2016,10,05,17,00,2.20
2016,10,05,17,01,1.40
2016,10,05,17,02,0.00
2016,10,05,17,03,0.00
2016,10,05,17,04,0.00
2016,10,05,17,05,0.00
2016,10,05,17,06,0.00
2016,10,05,17,07,0.00
2016,10,05,17,08,0.10
2016,10,05,17,09,0.00
2016,10,05,17,10,0.00
2016,10,05,17,11,0.00
2016,10,05,17,12,0.00
2016,10,05,17,13,0.00
2016,10,05,17,14,0.00
2016,10,05,17,15,0.30
2016,10,05,17,16,1.10
2016,10,05,17,17,0.70
2016,10,05,17,18,1.10
2016,10,05,17,19,0.00
2016,10,05,17,20,0.10
2016,10,05,17,21,0.00
2016,10,05,17,22,0.00
2016,10,05,17,23,0.00
2016,10,05,17,24,0.00
2016,10,05,17,25,0.10
2016,10,05,17,26,0.00
2016,10,05,17,27,0.10
2016,10,05,17,28,0.00
2016,10,05,17,29,0.00
2016,10,05,17,30,0.00
2016,10,05,17,31,0.00
2016,10,05,17,32,0.00
2016,10,05,17,33,0.00
2016,10,05,17,34,0.30
2016,10,05,17,35,0.00
2016,10,05,17,36,0.00
2016,10,05,17,37,0.00
2016,10,05,17,38,0.00
2016,10,05,17,39,0.00
2016,10,05,17,40,0.00
2016,10,05,17,41,0.00
2016,10,05,17,42,0.10
2016,10,05,17,43,0.00
2016,10,05,17,44,0.00
2016,10,05,17,45,0.10
2016,10,05,17,46,0.10
2016,10,05,17,47,0.00
2016,10,05,17,48,0.00
2016,10,05,17,49,0.00
2016,10,05,17,50,0.10
2016,10,05,17,51,0.00
2016,10,05,17,52,0.00
2016,10,05,17,53,0.10
2016,10,05,17,54,0.00
2016,10,05,17,55,0.00
2016,10,05,17,56,0.00
2016,10,05,17,57,0.00
2016,10,05,17,58,0.00
2016,10,05,17,59,0.20
2016,10,05,18,00,0.00
2016,10,05,18,01,0.00
2016,10,05,18,02,0.00
2016,10,05,18,03,0.00
2016,10,05,18,04,0.00
2016,10,05,18,05,0.00
2016,10,05,18,06,0.00
2016,10,05,18,07,0.00
2016,10,05,18,08,0.00
2016,10,05,18,09,0.00
2016,10,05,18,10,0.00
2016,10,05,18,11,0.00
2016,10,05,18,12,0.00
2016,10,05,18,13,0.00
2016,10,05,18,14,0.00
2016,10,05,18,15,0.00
2016,10,05,18,16,0.00
2016,10,05,18,17,0.00
2016,10,05,18,18,0.00
2016,10,05,18,19,0.00
2016,10,05,18,20,0.00
2016,10,05,18,21,0.00
2016,10,05,18,22,0.00
2016,10,05,18,23,0.00
2016,10,05,18,24,0.00
2016,10,05,18,25,0.00
2016,10,05,18,26,0.00
2016,10,05,18,27,0.00
2016,10,05,18,28,0.00
2016,10,05,18,29,0.00
2016,10,05,18,30,0.00
2016,10,05,18,31,0.00
2016,10,05,18,32,0.00
2016,10,05,18,33,0.00
2016,10,05,18,34,0.00
2016,10,05,18,35,0.00
2016,10,05,18,36,0.00
2016,10,05,18,37,0.00
2016,10,05,18,38,0.10
2016,10,05,18,39,0.00
2016,10,05,18,40,0.00
2016,10,05,18,41,0.00
2016,10,05,18,42,0.00
2016,10,05,18,43,0.00
2016,10,05,18,44,0.00
2016,10,05,18,45,0.00
2016,10,05,18,46,0.00
2016,10,05,18,47,0.00
2016,10,05,18,48,0.00
2016,10,05,18,49,0.00
2016,10,05,18,50,0.00
2016,10,05,18,51,0.00
2016,10,05,18,52,0.00
2016,10,05,18,53,0.00
2016,10,05,18,54,0.00
2016,10,05,18,55,0.00
2016,10,05,18,56,0.00
2016,10,05,18,57,0.00
2016,10,05,18,58,0.00
2016,10,05,18,59,0.00
2016,10,05,19,00,0.00
2016,10,05,19,01,0.00
2016,10,05,19,02,0.00
2016,10,05,19,03,0.00
2016,10,05,19,04,0.00
2016,10,05,19,05,0.00
2016,10,05,19,06,0.00
2016,10,05,19,07,0.00
2016,10,05,19,08,0.00
2016,10,05,19,09,0.00
2016,10,05,19,10,0.00
2016,10,05,19,11,0.00
2016,10,05,19,12,0.00
2016,10,05,19,13,0.00
2016,10,05,19,14,0.00
2016,10,05,19,15,0.00
2016,10,05,19,16,0.00
2016,10,05,19,17,0.00
2016,10,05,19,18,0.00
2016,10,05,19,19,0.00
2016,10,05,19,20,0.00
2016,10,05,19,21,0.00
2016,10,05,19,22,0.00
2016,10,05,19,23,0.00
2016,10,05,19,24,0.00
2016,10,05,19,25,0.00
2016,10,05,19,26,0.00
2016,10,05,19,27,0.00
2016,10,05,19,28,0.00
2016,10,05,19,29,0.10
2016,10,05,19,30,0.00
2016,10,05,19,31,0.00
2016,10,05,19,32,0.00
2016,10,05,19,33,0.00
2016,10,05,19,34,0.00
2016,10,05,19,35,0.00
2016,10,05,19,36,0.00
2016,10,05,19,37,0.00
2016,10,05,19,38,0.00
2016,10,05,19,39,0.00
2016,10,05,19,40,0.00
2016,10,05,19,41,0.00
2016,10,05,19,42,0.00
2016,10,05,19,43,0.00
2016,10,05,19,44,0.00
2016,10,05,19,45,0.00
2016,10,05,19,46,0.10
2016,10,05,19,47,0.00
2016,10,05,19,48,0.00
2016,10,05,19,49,0.00
2016,10,05,19,50,0.00
2016,10,05,19,51,0.00
2016,10,05,19,52,0.00
2016,10,05,19,53,0.00
2016,10,05,19,54,0.00
2016,10,05,19,55,0.00
2016,10,05,19,56,0.00
2016,10,05,19,57,0.00
2016,10,05,19,58,0.00
2016,10,05,19,59,0.00
2016,10,05,20,00,0.00
2016,10,05,20,01,0.00